,,PA_Meas_PMT16A,,PR_Meas_QMR101_102,,RH_Meas_QMH101,,SR_Meas_QMS101,,TA_Meas_QMH101,,GenWind,,GenWind,
time,status,PA,status,PR,status,RH,status,SR,status,TA,status,DirAvg,status,SpdAvg,
2016-10-31, 15:57:04,VALID,920.11,VALID,0,INVALID,113.52,VALID,154.285,VALID,19.8798,VALID,319,VALID,1.96289,
2016-10-31, 15:59:04,VALID,920.186,VALID,0,INVALID,113.459,VALID,154.393,VALID,19.9593,VALID,33,VALID,1.89883,
2016-10-31, 16:02:04,VALID,920.189,VALID,0,INVALID,113.574,VALID,172.121,VALID,19.8588,VALID,15,VALID,2.41367,
2016-10-31, 16:03:04,VALID,920.19,VALID,0,INVALID,113.505,VALID,198.336,VALID,19.9578,VALID,356,VALID,0.733203,
2016-10-31, 16:04:04,VALID,920.095,VALID,0,INVALID,113.398,VALID,209.08,VALID,20.0148,VALID,34,VALID,2.22852,
2016-10-31, 16:05:04,VALID,920.139,VALID,0,INVALID,113.581,VALID,224.23,VALID,19.9173,VALID,347,VALID,4.50703,
2016-10-31, 16:06:04,VALID,920.14,VALID,0,INVALID,113.581,VALID,165.137,VALID,19.9368,VALID,320,VALID,1.14805,
2016-10-31, 16:07:04,VALID,920.148,VALID,0,INVALID,113.536,VALID,169.327,VALID,19.9953,VALID,358,VALID,0.611719,
2016-10-31, 16:08:04,VALID,920.173,VALID,0,INVALID,113.475,VALID,191.46,VALID,20.0538,VALID,67,VALID,2.34297,
2016-10-31, 16:09:04,VALID,920.177,VALID,0,INVALID,113.536,VALID,191.997,VALID,20.0553,VALID,37,VALID,0.858594,
2016-10-31, 16:10:04,VALID,920.22,VALID,0,INVALID,113.536,VALID,198.229,VALID,20.0733,VALID,300,VALID,0.685547,
2016-10-31, 16:11:04,VALID,920.215,VALID,0,INVALID,113.551,VALID,179.642,VALID,20.0538,VALID,34,VALID,2.82617,
2016-10-31, 16:12:04,VALID,920.241,VALID,0,INVALID,113.566,VALID,195.006,VALID,20.0538,VALID,315,VALID,1.93281,
2016-10-31, 16:13:04,VALID,920.225,VALID,0,INVALID,113.688,VALID,196.188,VALID,19.9368,VALID,290,VALID,2.43438,
2016-10-31, 16:14:04,VALID,920.255,VALID,0,INVALID,113.688,VALID,192.857,VALID,19.9173,VALID,46,VALID,1.08633,
2016-10-31, 16:15:04,VALID,920.266,VALID,0,INVALID,113.581,VALID,189.311,VALID,19.9938,VALID,215,VALID,1.59336,
2016-10-31, 16:16:04,VALID,920.259,VALID,0,INVALID,113.558,VALID,194.146,VALID,20.0343,VALID,44,VALID,2.68594,
2016-10-31, 16:17:04,VALID,920.202,VALID,0,INVALID,113.604,VALID,166.104,VALID,20.0538,VALID,32,VALID,3.49453,
2016-10-31, 16:18:04,VALID,920.361,VALID,0,INVALID,113.68,VALID,180.609,VALID,19.9563,VALID,296,VALID,2.41797,
2016-10-31, 16:19:04,VALID,920.341,VALID,0,INVALID,113.65,VALID,200.593,VALID,19.9758,VALID,20,VALID,2.27578,
2016-10-31, 16:20:04,VALID,920.317,VALID,0,INVALID,113.536,VALID,179.104,VALID,20.1123,VALID,3,VALID,2.18281,
2016-10-31, 16:21:04,VALID,920.366,VALID,0,INVALID,113.68,VALID,172.873,VALID,19.9938,VALID,246,VALID,1.20469,
2016-10-31, 16:22:04,VALID,920.361,VALID,0,INVALID,113.65,VALID,174.592,VALID,20.0538,VALID,309,VALID,0.220313,
2016-10-31, 16:23:04,VALID,920.416,VALID,0,INVALID,113.597,VALID,208.436,VALID,20.0928,VALID,346,VALID,0.941406,
2016-10-31, 16:24:04,VALID,920.388,VALID,0,INVALID,113.619,VALID,210.8,VALID,20.1123,VALID,27,VALID,1.37969,
2016-10-31, 16:25:04,VALID,920.282,VALID,0,INVALID,113.665,VALID,239.486,VALID,20.0148,VALID,33,VALID,1.73867,
2016-10-31, 16:26:04,VALID,920.407,VALID,0,INVALID,113.65,VALID,211.767,VALID,20.0538,VALID,41,VALID,1.85078,
2016-10-31, 16:27:04,VALID,920.419,VALID,0,INVALID,113.558,VALID,195.113,VALID,20.1318,VALID,157,VALID,1.0875,
2016-10-31, 16:28:04,VALID,920.394,VALID,0,INVALID,113.68,VALID,232.503,VALID,20.0343,VALID,27,VALID,2.97617,
2016-10-31, 16:29:04,VALID,920.47,VALID,0,INVALID,113.619,VALID,234.437,VALID,20.1513,VALID,27,VALID,1.13906,
2016-10-31, 16:30:04,VALID,920.441,VALID,0,INVALID,113.65,VALID,216.816,VALID,20.0718,VALID,62,VALID,1.85586,
2016-10-31, 16:31:04,VALID,920.458,VALID,0,INVALID,113.642,VALID,195.865,VALID,20.0913,VALID,18,VALID,2.57461,
2016-10-31, 16:32:04,VALID,920.408,VALID,0,INVALID,113.772,VALID,195.221,VALID,20.0733,VALID,5,VALID,2.28906,
2016-10-31, 16:33:04,VALID,920.445,VALID,0,INVALID,113.734,VALID,167.071,VALID,20.0718,VALID,327,VALID,1.84805,
2016-10-31, 16:34:04,VALID,920.433,VALID,0,INVALID,113.825,VALID,162.558,VALID,20.0343,VALID,5,VALID,1.81602,
2016-10-31, 16:35:04,VALID,920.467,VALID,0,INVALID,113.757,VALID,175.344,VALID,20.0328,VALID,6,VALID,1.77617,
2016-10-31, 16:36:04,VALID,920.4,VALID,0,INVALID,113.779,VALID,196.832,VALID,19.9938,VALID,12,VALID,2.60859,
2016-10-31, 16:37:04,VALID,920.363,VALID,0,INVALID,113.81,VALID,223.907,VALID,19.9743,VALID,17,VALID,2.13984,
2016-10-31, 16:38:04,VALID,920.348,VALID,0,INVALID,113.749,VALID,227.238,VALID,20.0538,VALID,14,VALID,2.36719,
2016-10-31, 16:39:04,VALID,920.418,VALID,0,INVALID,113.68,VALID,242.172,VALID,20.1123,VALID,247,VALID,0.0296875,
2016-10-31, 16:40:04,VALID,920.366,VALID,0,INVALID,113.741,VALID,246.148,VALID,20.0718,VALID,359,VALID,2.44609,
2016-10-31, 16:41:04,VALID,920.355,VALID,0,INVALID,113.84,VALID,229.494,VALID,20.0148,VALID,18,VALID,3.88906,
2016-10-31, 16:42:04,VALID,920.339,VALID,0,INVALID,113.764,VALID,239.379,VALID,20.0538,VALID,291,VALID,1.29258,
2016-10-31, 16:43:04,VALID,920.371,VALID,0,INVALID,113.932,VALID,241.528,VALID,19.9173,VALID,6,VALID,2.54453,
2016-10-31, 16:44:04,VALID,920.387,VALID,0,INVALID,113.833,VALID,246.9,VALID,20.0148,VALID,7,VALID,0.848047,
2016-10-31, 16:45:04,VALID,920.389,VALID,0,INVALID,113.818,VALID,245.718,VALID,19.9953,VALID,7,VALID,1.625,
2016-10-31, 16:46:04,VALID,920.341,VALID,0,INVALID,113.772,VALID,271.826,VALID,20.0928,VALID,29,VALID,1.49375,
2016-10-31, 16:47:04,VALID,920.374,VALID,0,INVALID,113.886,VALID,292.562,VALID,20.0163,VALID,30,VALID,2.23984,
2016-10-31, 16:48:04,VALID,920.394,VALID,0,INVALID,113.665,VALID,295.248,VALID,20.1318,VALID,8,VALID,1.88203,
2016-10-31, 16:49:04,VALID,920.35,VALID,0,INVALID,113.688,VALID,310.935,VALID,20.1708,VALID,34,VALID,2.02461,
2016-10-31, 16:50:04,VALID,920.402,VALID,0,INVALID,113.779,VALID,327.588,VALID,20.0343,VALID,207,VALID,1.28867,
2016-10-31, 16:51:04,VALID,920.4,VALID,0,INVALID,113.863,VALID,311.579,VALID,20.0343,VALID,14,VALID,2.02656,
2016-10-31, 16:52:04,VALID,920.459,VALID,0,INVALID,113.665,VALID,346.498,VALID,20.2083,VALID,8,VALID,2.53711,
2016-10-31, 16:53:04,VALID,920.392,VALID,0,INVALID,113.81,VALID,330.274,VALID,20.1108,VALID,12,VALID,2.27344,
2016-10-31, 16:54:04,VALID,920.395,VALID,0,INVALID,113.978,VALID,377.118,VALID,20.0343,VALID,19,VALID,1.50039,
2016-10-31, 16:55:04,VALID,920.407,VALID,0,INVALID,113.94,VALID,329.737,VALID,20.0343,VALID,99,VALID,1.70781,
2016-10-31, 16:56:04,VALID,920.412,VALID,0,INVALID,113.81,VALID,318.885,VALID,20.1513,VALID,329,VALID,0.932422,
2016-10-31, 16:57:04,VALID,920.384,VALID,0,INVALID,113.635,VALID,342.952,VALID,20.3058,VALID,25,VALID,1.18594,
2016-10-31, 16:58:04,VALID,920.388,VALID,0,INVALID,113.665,VALID,345.316,VALID,20.3448,VALID,7,VALID,1.86445,
2016-10-31, 16:59:04,VALID,920.358,VALID,0,INVALID,113.741,VALID,294.389,VALID,20.3058,VALID,334,VALID,0.921875,
2016-10-31, 17:00:04,VALID,920.409,VALID,0,INVALID,113.726,VALID,283.645,VALID,20.3643,VALID,293,VALID,1.20859,
2016-10-31, 17:01:04,VALID,920.389,VALID,0,INVALID,113.764,VALID,261.512,VALID,20.2863,VALID,189,VALID,0.625391,
2016-10-31, 17:02:04,VALID,920.373,VALID,0,INVALID,113.787,VALID,293.637,VALID,20.3253,VALID,139,VALID,0.0484375,
2016-10-31, 17:03:04,VALID,920.389,VALID,0,INVALID,113.726,VALID,259.793,VALID,20.4228,VALID,306,VALID,0.0410156,
2016-10-31, 17:04:04,VALID,920.422,VALID,0,INVALID,113.787,VALID,230.891,VALID,20.3643,VALID,3,VALID,0.591797,
2016-10-31, 17:05:04,VALID,920.394,VALID,0,INVALID,113.818,VALID,224.767,VALID,20.3838,VALID,13,VALID,1.49844,
2016-10-31, 17:06:04,VALID,920.355,VALID,0,INVALID,113.833,VALID,202.956,VALID,20.4228,VALID,16,VALID,1.72187,
2016-10-31, 17:07:04,VALID,920.373,VALID,0,INVALID,114.123,VALID,191.675,VALID,20.2068,VALID,306,VALID,1.27383,
2016-10-31, 17:08:04,VALID,920.404,VALID,0,INVALID,114.267,VALID,212.626,VALID,20.0913,VALID,334,VALID,1.97891,
2016-10-31, 17:09:04,VALID,920.297,VALID,0,INVALID,114.26,VALID,211.122,VALID,20.1108,VALID,34,VALID,2.10195,
2016-10-31, 17:10:04,VALID,920.365,VALID,0,INVALID,114.298,VALID,180.823,VALID,20.0328,VALID,269,VALID,2.09961,
2016-10-31, 17:11:04,VALID,920.313,VALID,0,INVALID,114.206,VALID,220.792,VALID,20.0718,VALID,185,VALID,0.733594,
2016-10-31, 17:12:04,VALID,920.256,VALID,0,INVALID,114.191,VALID,212.733,VALID,20.0703,VALID,12,VALID,1.79219,
2016-10-31, 17:13:04,VALID,920.309,VALID,0,INVALID,114.107,VALID,234.544,VALID,20.1498,VALID,30,VALID,1.48203,
2016-10-31, 17:14:04,VALID,920.307,VALID,0,INVALID,114.008,VALID,239.379,VALID,20.1678,VALID,93,VALID,0.980078,
2016-10-31, 17:15:04,VALID,920.293,VALID,0,INVALID,113.993,VALID,248.404,VALID,20.2473,VALID,347,VALID,1.4332,
2016-10-31, 17:16:04,VALID,920.305,VALID,0,INVALID,113.917,VALID,225.841,VALID,20.3253,VALID,127,VALID,1.25547,
2016-10-31, 17:17:04,VALID,920.275,VALID,0,INVALID,114.123,VALID,252.594,VALID,20.2458,VALID,9,VALID,2.37266,
2016-10-31, 17:18:04,VALID,920.299,VALID,0,INVALID,114.145,VALID,263.768,VALID,20.2668,VALID,8,VALID,1.71602,
2016-10-31, 17:19:04,VALID,920.205,VALID,0,INVALID,114.138,VALID,224.122,VALID,20.2863,VALID,38,VALID,2.85391,
2016-10-31, 17:20:04,VALID,920.288,VALID,0,INVALID,114.168,VALID,201.882,VALID,20.2863,VALID,40,VALID,2.13086,
2016-10-31, 17:21:04,VALID,920.308,VALID,0,INVALID,114.206,VALID,165.997,VALID,20.2863,VALID,328,VALID,0.357031,
2016-10-31, 17:22:04,VALID,920.36,VALID,0,INVALID,114.359,VALID,158.153,VALID,20.1888,VALID,328,VALID,2.01016,
2016-10-31, 17:23:04,VALID,920.37,VALID,0,INVALID,114.549,VALID,173.947,VALID,20.0523,VALID,343,VALID,1.38984,
2016-10-31, 17:24:04,VALID,920.4,VALID,0,INVALID,114.427,VALID,177.6,VALID,20.1108,VALID,14,VALID,1.53672,
2016-10-31, 17:25:04,VALID,920.354,VALID,0,INVALID,114.435,VALID,187.27,VALID,20.0928,VALID,316,VALID,0.848828,
2016-10-31, 17:26:04,VALID,920.33,VALID,0,INVALID,114.412,VALID,172.658,VALID,20.1108,VALID,42,VALID,2.00664,
2016-10-31, 17:27:04,VALID,920.362,VALID,0,INVALID,114.359,VALID,157.724,VALID,20.1693,VALID,8,VALID,1.37109,
2016-10-31, 17:28:04,VALID,920.386,VALID,0,INVALID,114.366,VALID,183.08,VALID,20.1693,VALID,11,VALID,2.02422,
2016-10-31, 17:30:04,VALID,920.386,VALID,0,INVALID,114.283,VALID,142.897,VALID,20.2668,VALID,15,VALID,1.84844,
2016-10-31, 17:32:04,VALID,920.304,VALID,0,INVALID,114.595,VALID,154.285,VALID,20.1303,VALID,353,VALID,2.12383,
2016-10-31, 17:33:04,VALID,920.355,VALID,0.2,INVALID,114.679,VALID,166.964,VALID,20.0718,VALID,11,VALID,1.9875,
2016-10-31, 17:34:04,VALID,920.218,VALID,0,INVALID,114.588,VALID,168.36,VALID,20.1108,VALID,35,VALID,2.45625,
2016-10-31, 17:35:04,VALID,920.408,VALID,0,INVALID,114.626,VALID,149.236,VALID,20.0913,VALID,346,VALID,1.98906,
2016-10-31, 17:36:04,VALID,920.415,VALID,0,INVALID,114.557,VALID,159.443,VALID,20.1108,VALID,53,VALID,0.651172,
2016-10-31, 17:37:04,VALID,920.309,VALID,0.2,INVALID,114.603,VALID,139.566,VALID,20.0913,VALID,35,VALID,3.07617,
2016-10-31, 17:38:04,VALID,920.34,VALID,0,INVALID,114.778,VALID,132.905,VALID,19.9743,VALID,258,VALID,1.93359,
2016-10-31, 17:39:04,VALID,920.385,VALID,0,INVALID,114.748,VALID,159.228,VALID,19.9728,VALID,27,VALID,2.46484,
2016-10-31, 17:40:04,VALID,920.372,VALID,0,INVALID,114.748,VALID,152.674,VALID,19.9548,VALID,154,VALID,0.7875,
2016-10-31, 17:41:04,VALID,920.277,VALID,0,INVALID,114.961,VALID,144.938,VALID,19.8558,VALID,161,VALID,1.0625,
2016-10-31, 17:42:04,VALID,920.359,VALID,0,INVALID,114.931,VALID,133.979,VALID,19.8783,VALID,308,VALID,1.325,
2016-10-31, 17:43:04,VALID,920.396,VALID,0.2,INVALID,114.999,VALID,143.971,VALID,19.8378,VALID,132,VALID,1.34063,
2016-10-31, 17:44:04,VALID,920.354,VALID,0.4,INVALID,115.091,VALID,146.227,VALID,19.7793,VALID,1,VALID,3.41914,
2016-10-31, 17:45:04,VALID,920.323,VALID,0,INVALID,115.083,VALID,155.145,VALID,19.7403,VALID,313,VALID,1.59492,
2016-10-31, 17:46:04,VALID,920.297,VALID,0.2,INVALID,115.075,VALID,163.74,VALID,19.7208,VALID,50,VALID,1.82187,
2016-10-31, 17:47:04,VALID,920.378,VALID,0,INVALID,115.045,VALID,181.253,VALID,19.7808,VALID,329,VALID,1.78984,
2016-10-31, 17:48:04,VALID,920.321,VALID,0.2,INVALID,115.129,VALID,169.435,VALID,19.7208,VALID,61,VALID,1.58008,
2016-10-31, 17:49:04,VALID,920.407,VALID,0.2,INVALID,115.083,VALID,175.344,VALID,19.7208,VALID,164,VALID,1.68125,
2016-10-31, 17:50:04,VALID,920.384,VALID,0,INVALID,115.083,VALID,180.931,VALID,19.7403,VALID,77,VALID,1.37031,
2016-10-31, 17:51:04,VALID,920.42,VALID,0.2,INVALID,114.999,VALID,179.856,VALID,19.7988,VALID,347,VALID,1.83242,
2016-10-31, 17:52:04,VALID,920.448,VALID,0.2,INVALID,114.946,VALID,170.187,VALID,19.8183,VALID,328,VALID,0.107813,
2016-10-31, 17:53:04,VALID,920.442,VALID,0,INVALID,114.938,VALID,159.658,VALID,19.8378,VALID,133,VALID,0,
2016-10-31, 17:54:04,VALID,920.418,VALID,0.2,INVALID,115.06,VALID,164.707,VALID,19.7598,VALID,282,VALID,3.22422,
2016-10-31, 17:55:04,VALID,920.413,VALID,0,INVALID,115.083,VALID,168.36,VALID,19.7793,VALID,236,VALID,0.16875,
2016-10-31, 17:56:04,VALID,920.462,VALID,0,INVALID,115.091,VALID,175.129,VALID,19.7808,VALID,78,VALID,0.410547,
2016-10-31, 17:57:04,VALID,920.429,VALID,0.2,INVALID,115.083,VALID,178.03,VALID,19.7793,VALID,140,VALID,0.844531,
2016-10-31, 17:58:04,VALID,920.429,VALID,0,INVALID,114.969,VALID,220.362,VALID,19.8768,VALID,6,VALID,1.93242,
2016-10-31, 17:59:04,VALID,920.338,VALID,0,INVALID,114.961,VALID,210.8,VALID,19.9353,VALID,16,VALID,2.40469,
2016-10-31, 18:00:04,VALID,920.324,VALID,0,INVALID,115.091,VALID,215.42,VALID,19.8978,VALID,22,VALID,0.871875,
2016-10-31, 18:01:04,VALID,920.35,VALID,0,INVALID,115.045,VALID,213.056,VALID,19.9158,VALID,78,VALID,1.48672,
2016-10-31, 18:02:04,VALID,920.378,VALID,0,INVALID,115.114,VALID,199.733,VALID,19.8978,VALID,184,VALID,0.751953,
2016-10-31, 18:03:04,VALID,920.372,VALID,0,INVALID,115.266,VALID,201.774,VALID,19.7988,VALID,263,VALID,1.4293,
2016-10-31, 18:04:04,VALID,920.3,VALID,0,INVALID,115.114,VALID,204.031,VALID,19.9353,VALID,12,VALID,1.88516,
2016-10-31, 18:05:04,VALID,920.303,VALID,0,INVALID,115.182,VALID,220.254,VALID,19.9158,VALID,210,VALID,1.35469,
2016-10-31, 18:06:04,VALID,920.337,VALID,0,INVALID,115.373,VALID,240.024,VALID,19.8378,VALID,257,VALID,2.11484,
2016-10-31, 18:07:04,VALID,920.272,VALID,0,INVALID,115.304,VALID,251.305,VALID,19.8768,VALID,56,VALID,1.10547,
2016-10-31, 18:08:04,VALID,920.23,VALID,0,INVALID,115.258,VALID,263.123,VALID,19.9353,VALID,3,VALID,1.20625,
2016-10-31, 18:09:04,VALID,920.224,VALID,0,INVALID,115.342,VALID,254.636,VALID,19.8963,VALID,121,VALID,1.12266,
2016-10-31, 18:10:04,VALID,920.177,VALID,0,INVALID,115.449,VALID,253.131,VALID,19.8963,VALID,33,VALID,1.62188,
2016-10-31, 18:11:04,VALID,920.179,VALID,0,INVALID,115.411,VALID,244.966,VALID,19.9353,VALID,360,VALID,3.14375,
2016-10-31, 18:12:04,VALID,920.233,VALID,0,INVALID,115.487,VALID,242.387,VALID,19.9158,VALID,12,VALID,2.39297,
2016-10-31, 18:13:04,VALID,920.18,VALID,0.2,INVALID,115.457,VALID,235.833,VALID,19.9953,VALID,3,VALID,2.65117,
2016-10-31, 18:14:04,VALID,920.19,VALID,0,INVALID,115.571,VALID,235.941,VALID,19.9758,VALID,69,VALID,1.43633,
2016-10-31, 18:15:04,VALID,920.139,VALID,0,INVALID,115.601,VALID,239.916,VALID,19.9743,VALID,19,VALID,1.8043,
2016-10-31, 18:16:04,VALID,920.163,VALID,0,INVALID,115.586,VALID,252.164,VALID,19.9938,VALID,137,VALID,1.46719,
2016-10-31, 18:17:04,VALID,920.151,VALID,0,INVALID,115.937,VALID,229.494,VALID,19.8978,VALID,14,VALID,1.45,
2016-10-31, 18:18:04,VALID,920.146,VALID,0.2,INVALID,116.067,VALID,253.669,VALID,19.8198,VALID,3,VALID,2.76289,
2016-10-31, 18:19:04,VALID,920.218,VALID,0,INVALID,116.059,VALID,217.461,VALID,19.7988,VALID,2,VALID,1.28633,
2016-10-31, 18:20:04,VALID,920.154,VALID,0,INVALID,116.097,VALID,207.147,VALID,19.8393,VALID,21,VALID,2.49961,
2016-10-31, 18:21:04,VALID,920.107,VALID,0,INVALID,116.28,VALID,212.411,VALID,19.7598,VALID,13,VALID,3.33008,
2016-10-31, 18:22:04,VALID,920.172,VALID,0,INVALID,116.135,VALID,215.957,VALID,19.8378,VALID,6,VALID,0.5,
